Tracking 30298 objects as of 27-Apr-2025
HD Live streaming from Space Station
objects crossing your sky now

ARIANE 44L DEB

Track ARIANE 44L DEB now!
10-day predictions


NORAD ID: 24751
Int'l Code: 1991-003K
Perigee: 432.9 km
Apogee: 22,915.4 km
Inclination: 7.9 °
Period: 402.1 minutes
Semi major axis: 18045 km
RCS: 0.9341 m2 (medium)
Launch date: January 15, 1991
Source: France (FR)
Launch site: FRENCH GUIANA (FRGUI)

Note: This is SATELLITE DEBRIS
Your satellite tracking list
Your tracking list is empty




NASA's NSSDC Master Catalog

Two Line Element Set (TLE):
1 24751U 91003K   25115.46333372  .00009468  00000-0  15144-1 0  9990
2 24751   7.8585 110.6134 6229529 309.8383  10.0451  3.58149173339860
Source of the keplerian elements: AFSPC